[ ตารางข้อมูล ] [ Min-Max ] [ วันนี้2 ] [ วันนี้4 ] [ เทียบ-A 3วัน ] [ เทียบ-B 4วัน ]   

วันนี้2   [ ◀ ช่วงเก่ากว่า ] [ ช่วงที่ 22 ] [ ช่วงใหม่กว่า ▶ ] [ ล่าสุด ]    [ 3 ชั่วโมง ] [ 6 ชั่วโมง ] [ 12 ชั่วโมง ] [ 24 ชั่วโมง ]   วันนี้2

อุณภูมิในตู้ Knockdown4529  ราย 3 ชั่วโมง  ที่วัดได้ ในช่วงวันเวลา 28/08/2026 (17:14) ถึง 28/08/2026 (20:14) 
ความชื้นในตู้ Knockdown4529  ราย 3 ชั่วโมง  ที่วัดได้ ในช่วงวันเวลา 28/08/2026 (17:14) ถึง 28/08/2026 (20:14) 
การใช้ไฟฟ้าในตู้ Knockdown4529  ราย 3 ชั่วโมง  ที่วัดได้ ในช่วงวันเวลา 28/08/2026 (17:14) ถึง 28/08/2026 (20:14) 

  DS18B20SHTC3PZEM-004TWiFi 
IDDate d/m/Y & Timedata1
สูง
data2
ต่ำ
data3
นอก
temp
pcb
hum
pcb
VoltAmpWattrssiTime
 16863  28/08/2026 20:13:46  32.5  32.5  30.0  33.6  64.9  227.4  0.04  4.6  -61  20:13 
 16862  28/08/2026 20:09:02  32.6  32.5  30.0  33.5  64.8  226.9  0.04  4.6  -62  20:09 
 16861  28/08/2026 20:04:19  32.6  32.6  30.0  33.5  64.8  227.2  0.04  4.6  -62  20:04 
 16860  28/08/2026 19:59:35  32.6  32.6  30.1  33.6  64.7  226.6  0.04  4.5  -61  19:59 
 16859  28/08/2026 19:54:52  32.6  32.6  30.2  33.6  64.6  225.9  0.04  4.5  -61  19:54 
 16858  28/08/2026 19:50:09  32.7  32.6  30.2  33.7  64.6  223.5  0.04  4.5  -61  19:50 
 16857  28/08/2026 19:45:25  32.8  32.7  30.2  33.8  64.7  227.2  0.04  4.5  -60  19:45 
 16856  28/08/2026 19:40:42  32.8  32.8  30.2  34.0  64.5  227.1  0.04  4.5  -61  19:40 
 16855  28/08/2026 19:35:58  32.8  32.8  30.2  33.8  64.4  227.2  0.04  4.5  -63  19:35 
 16854  28/08/2026 19:31:15  32.9  32.8  30.2  34.1  64.3  227.0  0.04  4.5  -61  19:31 
 16853  28/08/2026 19:26:32  32.9  32.9  30.1  34.0  64.3  226.8  0.04  4.6  -61  19:26 
 16852  28/08/2026 19:21:48  33.0  32.9  30.3  34.1  64.2  226.2  0.04  4.5  -60  19:21 
 16851  28/08/2026 19:17:05  33.1  32.9  30.2  34.1  64.1  228.1  0.04  4.5  -61  19:17 
 16850  28/08/2026 19:12:21  33.1  33.0  30.3  33.9  63.8  226.7  0.04  4.5  -61  19:12 
 16849  28/08/2026 19:07:38  33.2  33.1  30.2  34.2  63.7  226.3  0.04  4.5  -61  19:07 
 16848  28/08/2026 19:02:55  33.3  33.1  30.2  34.4  63.6  226.0  0.04  4.5  -61  19:02 
 16847  28/08/2026 18:58:11  33.4  33.1  30.3  34.2  63.4  225.0  0.05  4.4  -63  18:58 
 16846  28/08/2026 18:53:28  33.6  33.2  30.4  34.6  63.2  226.8  0.04  4.5  -63  18:53 
 16845  28/08/2026 18:48:45  33.8  33.3  30.4  34.8  62.8  227.8  0.04  4.5  -63  18:48 
 16844  28/08/2026 18:44:01  34.3  33.4  30.4  34.8  62.5  227.7  0.04  4.5  -63  18:44 
 16843  28/08/2026 18:39:17  34.4  33.4  30.5  35.0  62.4  227.4  0.04  4.5  -63  18:39 
 16842  28/08/2026 18:34:34  34.4  33.4  30.6  35.0  62.2  228.3  0.04  4.5  -63  18:34 
 16841  28/08/2026 18:29:51  34.5  33.4  30.6  35.1  62.3  229.2  0.04  4.5  -64  18:29 
 16840  28/08/2026 18:25:07  34.6  33.5  30.7  35.0  62.1  228.8  0.04  4.6  -63  18:25 

Data every 5 minute.


ใช้เวลาประมวลผล 0.06081 วินาที